Weather History for CXRB - November, 2013

Change the Weather History Date:

Wednesday, November 6, 2013

  Actual Average Record
Temperature  
Mean Temperature 11 °F -  
Max Temperature 15 °F - - ()
Min Temperature 7 °F - - ()
Degree Days  
Heating Degree Days 54    
Moisture  
Dew Point 11 °F    
Average Humidity 92    
Maximum Humidity 93    
Minimum Humidity 87    
Precipitation  
Precipitation 0.00 in - - ()
Sea Level Pressure  
Sea Level Pressure 29.93 in    
Wind  
Wind Speed 2 mph ()    
Max Wind Speed 4 mph    
Max Gust Speed -    
T = Trace of Precipitation, MM = Missing Value Source: Averaged Metar Reports

Daily Weather History Graph

Daily Weather History Graph

Search for Another Location

Airport or City:

Trip Planner

Search our weather history database for the weather conditions in past years. The results will help you decide how hot, cold, wet, or windy it might be!

Date:

Astronomy

Nov. 06, 2013 Rise Set
Actual Time 10:31 AM MST 11:35 AM MST
Civil Twilight 7:44 AM MST 2:20 PM MST
Nautical Twilight 5:58 AM MST 4:06 PM MST
Astronomical Twilight 4:25 AM MST 5:38 PM MST
Moon No Moon Rise No Moon Set
Length of Visible Light 6h 36m
Length of Day
1h 04m
Waxing Crescent, 14% of the Moon is Illuminated
Nov 6
Waxing Crescent
Nov 9
First Quarter
Nov 17
Full
Nov 25
Last Quarter
Dec 2
New

Hourly Weather History & Observations

Time (MST) Temp. Windchill Dew Point Humidity Pressure Visibility Wind Dir Wind Speed Gust Speed Precip Events Conditions
12:00 AM 14.0 °F - 12.2 °F 93% 29.96 in - SW 2.3 mph - N/A   Unknown
1:00 AM 15.3 °F - 13.5 °F 93% 29.96 in - SW 2.3 mph - N/A   Unknown
2:00 AM 15.3 °F - 13.5 °F 93% 29.96 in - WSW 2.3 mph - N/A   Unknown
3:00 AM 15.1 °F - 13.3 °F 93% 29.97 in - SW 2.3 mph - N/A   Unknown
4:00 AM 14.4 °F - 12.6 °F 93% 29.96 in - WSW 2.3 mph - N/A   Unknown
5:00 AM 14 °F - 12 °F 89% 29.96 in - WSW 1.2 mph - -  
5:00 AM 14.0 °F - 12.2 °F 93% 29.96 in - WSW 1.2 mph - N/A   Unknown
6:00 AM 14.7 °F - 12.9 °F 93% 29.96 in - SW 1.2 mph - N/A   Unknown
7:00 AM 15.3 °F - 13.5 °F 93% 29.96 in - SW 2.3 mph - N/A   Unknown
8:00 AM 14.0 °F - 12.2 °F 93% 29.94 in - SSW 2.3 mph - N/A   Unknown
9:00 AM 13.8 °F - 12.0 °F 93% 29.95 in - South 2.3 mph - N/A   Unknown
10:00 AM 12.0 °F - 10.0 °F 92% 29.94 in - SW 2.3 mph - N/A   Unknown
11:00 AM 12 °F - 10 °F 90% 29.95 in - SSW 1.2 mph - -  
11:00 AM 12.4 °F - 10.4 °F 92% 29.95 in - SSW 1.2 mph - N/A   Unknown
12:00 PM 12.6 °F - 10.6 °F 92% 29.94 in - SW 2.3 mph - N/A   Unknown
1:00 PM 12.2 °F - 10.2 °F 92% 29.94 in - WSW 2.3 mph - N/A   Unknown
2:00 PM 12.9 °F 6.9 °F 10.9 °F 92% 29.93 in - WSW 3.5 mph - N/A   Unknown
3:00 PM 13.3 °F - 11.5 °F 93% 29.93 in - WSW 2.3 mph - N/A   Unknown
4:00 PM 13.6 °F - 11.8 °F 93% 29.91 in - SW 2.3 mph - N/A   Unknown
5:00 PM 14 °F - 12 °F 87% 29.91 in - SW 2.3 mph - -  
5:00 PM 13.6 °F - 11.8 °F 93% 29.91 in - SW 2.3 mph - N/A   Unknown
6:00 PM 13.8 °F 8.0 °F 12.0 °F 93% 29.89 in - WSW 3.5 mph - N/A   Unknown
7:00 PM 13.5 °F - 11.7 °F 93% 29.89 in - SW 2.3 mph - N/A   Unknown
8:00 PM 14.0 °F - 12.2 °F 93% 29.88 in - SW 2.3 mph - N/A   Unknown
9:00 PM 14.4 °F 8.6 °F 12.6 °F 93% 29.87 in - SW 3.5 mph - N/A   Unknown
10:00 PM 13.1 °F - 11.1 °F 92% 29.86 in - West 2.3 mph - N/A   Unknown
11:00 PM 8 °F - 6 °F 88% 29.87 in - NNW 2.3 mph - -  
11:00 PM 8.4 °F - 6.1 °F 90% 29.87 in - NNW 2.3 mph - N/A   Unknown